ONEWEB-0080, 45426

Orbit data source: Space-Track

ONEWEB-0080, 45426 is a payload satellite owned by One Web (UK) in LEO that was launched on Sat, 21 Mar 2020 UTC via a SOYUZ-2-1B launch vehicle from the Tyuratam Missile And Space Complex (TTMTR). Payload-class satellites include a variety of spacecraft equipped with specific instruments for various scientific and technological missions. These include communications satellites like Starlink; space stations such as the ISS; scientific satellites like the Hubble; Earth observation satellites from companies like Planet Labs, Umbra, and HawkEye 360; GPS; miniature CubeSats for education and research; and military/defense satellites.

Loading next visibility...
Identifier
45426, 2020-020C
Orbit
LEO
Country
Flag of UKUK
Related business
Manufacturer
One Web
Mission
Operational Commercial Communications
Bus & Motor
ARROW, Unknown motor
Mass
148 kg wet, ~140 kg dry
Launch date (UTC)
2020-03-21 (6 years ago)
Launch vehicle
SOYUZ-2-1B
Launch site
Tyuratam Missile And Space Complex (TTMTR)
Object type
Payload
Rocket body
Debris
Shape & HBR
Trap Box + 2 Pan, 6.7 m
Radar Cross Section
3.464 m², Large (>1 m²)

Expand to show TLE details & history
Last TLE update: 9 hours ago

TLE from 9 hours ago
0 ONEWEB-0080
1 45426U 20020C   25300.10669643  .00000400  00000-0  10927-2 0  9995
2 45426  87.8845  67.4785 0001807 108.6743 251.4581 13.11417255272158
Epoch: 2025-10-27T02:33Z
TLE epoch observation values (Epoch: 2025-10-27T02:33:38.571Z)
Latitude
-0.00005°
Longitude
-6.64551°
Altitude
1,221.007 km
Speed
7.244 km/s
True Right ascension
04h 29m 54s
True Declination
0° 00' 00"
Sunlit
Object was in full shadow at epoch
Visualization orbit readout
Latitude
Unknown
Longitude
Unknown
Altitude
Unknown
Speed
Unknown
Apparent Right ascension
Unknown
Apparent Declination
Unknown
Sunlit
N/A
Visualization observer readout
Local Sidereal Time
07:26:02
Azimuth
Unknown
Elevation
Unknown
Doppler factor
Unknown
Orbital elements
Apogee altitude
1,216.172 km
Perigee altitude
1,213.428 km
Semi-major axis
7,592.937 km
Eccentricity
0.00018
Inclination
87.8845°
RAAN
67.4785°
Arg. of periapsis
108.6743°
True anomaly
251.43847°
Mean anomaly
251.4581°
Eccentric anomaly
251.44828°
Mean motion
3.28041 °/min
Orbital period
109.74 mins
BSTAR
0.0010927
Loading maneuver chart data...
Computing Atmospheric mass density...
Loading historical data...
Loading historical data...
Loading historical data...
Loading historical data...
Loading historical data...
Loading historical data...
Loading historical data...

Documentation

Showing up to 5 results
|